Laconia, NH

1:33 PM EDT on August 19, 2017 (GMT -0400)
Laconia Municipal

Weather History for KLCI - October, 2012

Change the Weather History Date:

Monday, October 15, 2012

  Actual Average Record
Temperature  
Mean Temperature 57 °F -  
Max Temperature 66 °F 60 °F 75 °F (1990)
Min Temperature 48 °F 40 °F 26 °F (1993)
Degree Days  
Heating Degree Days 8    
Growing Degree Days 7 (Base 50)    
Moisture  
Dew Point 48 °F    
Average Humidity 89    
Maximum Humidity 94    
Minimum Humidity 73    
Precipitation  
Precipitation 0.00 in - - ()
Sea Level Pressure  
Sea Level Pressure 29.78 in    
Wind  
Wind Speed 1 mph (SSW)    
Max Wind Speed 16 mph    
Max Gust Speed 20 mph    
Visibility 3 miles    
Events      
Averages and records for this station are not official NWS values.
T = Trace of Precipitation, MM = Missing Value Source: NWS Daily Summary

Daily Weather History Graph

Daily Weather History Graph

Search for Another Location

Airport or City:

Trip Planner

Search our weather history database for the weather conditions in past years. The results will help you decide how hot, cold, wet, or windy it might be!

Date:

Astronomy

Oct. 15, 2012 Rise Set
Actual Time 7:00 AM EDT 6:01 PM EDT
Civil Twilight 6:31 AM EDT 6:30 PM EDT
Nautical Twilight 5:58 AM EDT 7:03 PM EDT
Astronomical Twilight 5:25 AM EDT 7:36 PM EDT
Moon 7:08 AM EDT (10/15) 5:56 PM EDT (10/15)
Length of Visible Light 11h 59m
Length of Day
11h 01m
New Moon, 0% of the Moon is Illuminated
Oct 15
New Moon
Oct 21
First Quarter
Oct 29
Full
Nov 6
Last Quarter
Nov 13
New

Hourly Weather History & Observations

Time (EDT) Temp. Dew Point Humidity Pressure Visibility Wind Dir Wind Speed Gust Speed Precip Events Conditions
12:15 AM 48.2 °F 44.6 °F 87% 29.89 in 0.5 mi Calm Calm - N/A   Overcast
12:35 AM 48.2 °F 44.6 °F 87% 29.88 in 0.2 mi Calm Calm - N/A   Overcast
12:55 AM 48.2 °F 44.6 °F 87% 29.88 in 0.2 mi Calm Calm - N/A   Overcast
1:15 AM 48.2 °F 44.6 °F 87% 29.87 in 0.2 mi Calm Calm - N/A   Overcast
1:35 AM 48.2 °F 46.4 °F 93% 29.86 in 0.2 mi Calm Calm - N/A   Overcast
1:55 AM 48.2 °F 46.4 °F 93% 29.86 in 0.2 mi Calm Calm - N/A   Overcast
2:15 AM 48.2 °F 46.4 °F 93% 29.84 in 0.2 mi Calm Calm - N/A   Overcast
2:55 AM 48.2 °F 46.4 °F 93% 29.83 in 0.2 mi Calm Calm - N/A   Overcast
3:15 AM 48.2 °F 46.4 °F 93% 29.82 in 0.2 mi Calm Calm - N/A   Overcast
3:35 AM 48.2 °F 46.4 °F 93% 29.81 in 0.2 mi Calm Calm - N/A   Overcast
3:55 AM 48.2 °F 46.4 °F 93% 29.81 in 0.2 mi Calm Calm - N/A   Overcast
4:15 AM 48.2 °F 46.4 °F 93% 29.81 in 0.2 mi Calm Calm - N/A   Overcast
4:35 AM 48.2 °F 44.6 °F 87% 29.80 in 0.2 mi Calm Calm - N/A   Overcast
4:55 AM 48.2 °F 44.6 °F 87% 29.79 in 0.2 mi Calm Calm - N/A   Overcast
5:15 AM 48.2 °F 44.6 °F 87% 29.79 in 0.2 mi Calm Calm - N/A   Overcast
5:55 AM 48.2 °F 44.6 °F 87% 29.77 in 0.2 mi Calm Calm - N/A   Overcast
6:15 AM 48.2 °F 44.6 °F 87% 29.76 in 0.2 mi Calm Calm - N/A   Overcast
6:55 AM 48.2 °F 46.4 °F 93% 29.75 in 0.2 mi Calm Calm - N/A   Overcast
7:15 AM 48.2 °F 46.4 °F 93% 29.73 in 0.2 mi Calm Calm - N/A   Overcast
7:35 AM 48.2 °F 46.4 °F 93% 29.73 in 0.2 mi Calm Calm - N/A   Overcast
7:55 AM 48.2 °F 46.4 °F 93% 29.74 in 0.8 mi Calm Calm - N/A   Overcast
8:55 AM 51.8 °F 48.2 °F 88% 29.74 in 5.0 mi Calm Calm - N/A   Overcast
9:15 AM 51.8 °F 48.2 °F 88% 29.74 in 7.0 mi Calm Calm - N/A   Overcast
10:15 AM 53.6 °F 51.8 °F 94% 29.73 in 9.0 mi Calm Calm - N/A   Overcast
10:35 AM 55.4 °F 51.8 °F 88% 29.72 in 10.0 mi East 3.5 mph - N/A   Overcast
10:55 AM 55.4 °F 53.6 °F 94% 29.71 in 10.0 mi NW 3.5 mph - N/A   Overcast
11:15 AM 57.2 °F 55.4 °F 94% 29.71 in 10.0 mi Calm Calm - N/A   Overcast
12:15 PM 62.6 °F 57.2 °F 82% 29.70 in 10.0 mi SW 8.1 mph - N/A   Overcast
12:35 PM 64.4 °F 57.2 °F 77% 29.68 in 10.0 mi SSW 9.2 mph - N/A   Mostly Cloudy
12:55 PM 66.2 °F 57.2 °F 73% 29.67 in 10.0 mi SSW 11.5 mph 16.1 mph N/A   Scattered Clouds
1:15 PM 64.4 °F 57.2 °F 77% 29.66 in 10.0 mi South 16.1 mph 19.6 mph N/A   Mostly Cloudy